Weather History for KSFZ - December, 2012

Change the Weather History Date:

Sunday, December 16, 2012

  Actual Average Record
Temperature  
Mean Temperature 32 °F -  
Max Temperature 35 °F 39 °F 57 °F (2008)
Min Temperature 30 °F 25 °F 12 °F (2004)
Degree Days  
Heating Degree Days 32    
Moisture  
Dew Point 26 °F    
Average Humidity 76    
Maximum Humidity 93    
Minimum Humidity 60    
Precipitation  
Precipitation 0.19 in - - ()
Sea Level Pressure  
Sea Level Pressure 30.17 in    
Wind  
Wind Speed 6 mph (East)    
Max Wind Speed 13 mph    
Max Gust Speed 17 mph    
Visibility 8 miles    
Events      
Averages and records for this station are not official NWS values.
T = Trace of Precipitation, MM = Missing Value Source: NWS Daily Summary

Daily Weather History Graph

Daily Weather History Graph

Search for Another Location

Airport or City:

Trip Planner

Search our weather history database for the weather conditions in past years. The results will help you decide how hot, cold, wet, or windy it might be!

Date:

Astronomy

Dec. 16, 2012 Rise Set
Actual Time 7:07 AM EST 4:16 PM EST
Civil Twilight 6:36 AM EST 4:47 PM EST
Nautical Twilight 6:00 AM EST 5:22 PM EST
Astronomical Twilight 5:26 AM EST 5:56 PM EST
Moon 9:36 AM EST (12/16) 8:29 PM EST (12/16)
Length of Visible Light 10h 11m
Length of Day
9h 08m
Waxing Crescent, 16% of the Moon is Illuminated
Dec 16
Waxing Crescent
Dec 20
First Quarter
Dec 28
Full
Jan 4
Last Quarter
Jan 11
New

Hourly Weather History & Observations

Time (EST) Temp. Windchill Dew Point Humidity Pressure Visibility Wind Dir Wind Speed Gust Speed Precip Events Conditions
12:15 AM 30.2 °F - 23.0 °F 75% 30.29 in 10.0 mi Calm Calm - N/A   Scattered Clouds
12:35 AM 30.2 °F 26.7 °F 23.0 °F 75% 30.29 in 10.0 mi East 3.5 mph - N/A   Mostly Cloudy
12:55 AM 30.2 °F 26.7 °F 24.8 °F 80% 30.28 in 10.0 mi East 3.5 mph - N/A   Overcast
1:15 AM 30.2 °F 25.4 °F 24.8 °F 80% 30.27 in 10.0 mi ENE 4.6 mph - N/A   Overcast
1:35 AM 30.2 °F 26.7 °F 24.8 °F 80% 30.28 in 10.0 mi East 3.5 mph - N/A   Overcast
2:15 AM 30.2 °F 26.7 °F 23.0 °F 75% 30.27 in 10.0 mi East 3.5 mph - N/A   Overcast
2:35 AM 30.2 °F - 23.0 °F 75% 30.28 in 10.0 mi Calm Calm - N/A   Overcast
2:55 AM 30.2 °F 26.7 °F 23.0 °F 75% 30.28 in 10.0 mi East 3.5 mph - N/A   Overcast
3:15 AM 30.2 °F 26.7 °F 23.0 °F 75% 30.27 in 10.0 mi NE 3.5 mph - N/A   Overcast
3:35 AM 30.2 °F 26.7 °F 21.2 °F 69% 30.26 in 10.0 mi ENE 3.5 mph - N/A   Overcast
3:55 AM 30.2 °F 26.7 °F 21.2 °F 69% 30.27 in 10.0 mi ENE 3.5 mph - N/A   Overcast
4:15 AM 30.2 °F 26.7 °F 21.2 °F 69% 30.26 in 10.0 mi East 3.5 mph - N/A   Overcast
4:35 AM 30.2 °F 25.4 °F 21.2 °F 69% 30.26 in 10.0 mi ENE 4.6 mph - N/A   Overcast
4:55 AM 30.2 °F 24.3 °F 21.2 °F 69% 30.25 in 10.0 mi ENE 5.8 mph - N/A   Overcast
5:15 AM 30.2 °F 26.7 °F 21.2 °F 69% 30.25 in 10.0 mi ENE 3.5 mph - N/A   Overcast
5:55 AM 30.2 °F 25.4 °F 21.2 °F 69% 30.25 in 10.0 mi East 4.6 mph - N/A   Overcast
6:15 AM 32.0 °F 27.5 °F 21.2 °F 64% 30.25 in 10.0 mi East 4.6 mph - N/A   Overcast
6:35 AM 32.0 °F 25.6 °F 21.2 °F 64% 30.25 in 10.0 mi ENE 6.9 mph - N/A   Overcast
6:55 AM 32.0 °F 25.6 °F 21.2 °F 64% 30.25 in 10.0 mi East 6.9 mph - N/A   Overcast
7:15 AM 32.0 °F 26.4 °F 21.2 °F 64% 30.24 in 10.0 mi East 5.8 mph - N/A   Overcast
7:35 AM 32.0 °F 26.4 °F 21.2 °F 64% 30.24 in 10.0 mi East 5.8 mph - N/A   Overcast
8:15 AM 32.0 °F 24.8 °F 21.2 °F 64% 30.25 in 10.0 mi East 8.1 mph - N/A   Overcast
8:55 AM 33.8 °F 27.0 °F 21.2 °F 60% 30.24 in 10.0 mi East 8.1 mph - N/A   Overcast
9:15 AM 33.8 °F 27.0 °F 21.2 °F 60% 30.25 in 10.0 mi East 8.1 mph - N/A   Overcast
9:35 AM 33.8 °F 28.6 °F 23.0 °F 65% 30.25 in 10.0 mi East 5.8 mph - N/A   Overcast
9:55 AM 33.8 °F 27.0 °F 23.0 °F 65% 30.25 in 10.0 mi East 8.1 mph - N/A   Overcast
10:15 AM 33.8 °F 26.4 °F 23.0 °F 65% 30.23 in 10.0 mi East 9.2 mph - N/A   Overcast
10:35 AM 33.8 °F 27.0 °F 23.0 °F 65% 30.23 in 10.0 mi East 8.1 mph - N/A   Overcast
10:55 AM 33.8 °F 25.3 °F 23.0 °F 65% 30.22 in 10.0 mi East 11.5 mph 16.1 mph N/A   Overcast
11:15 AM 35.6 °F 28.0 °F 24.8 °F 65% 30.21 in 10.0 mi East 10.4 mph 16.1 mph N/A   Overcast
11:55 AM 35.6 °F 27.5 °F 24.8 °F 65% 30.19 in 10.0 mi East 11.5 mph - N/A   Overcast
12:15 PM 35.6 °F 27.5 °F 24.8 °F 65% 30.18 in 10.0 mi East 11.5 mph - N/A   Overcast
12:35 PM 35.6 °F 27.5 °F 24.8 °F 65% 30.17 in 10.0 mi East 11.5 mph - N/A   Overcast
12:55 PM 35.6 °F 28.6 °F 24.8 °F 65% 30.17 in 10.0 mi ESE 9.2 mph - N/A   Overcast
1:15 PM 35.6 °F 28.0 °F 24.8 °F 65% 30.16 in 10.0 mi East 10.4 mph 16.1 mph N/A   Overcast
1:35 PM 35.6 °F 27.1 °F 24.8 °F 65% 30.15 in 10.0 mi East 12.7 mph 17.3 mph N/A   Overcast
1:55 PM 35.6 °F 27.1 °F 24.8 °F 65% 30.15 in 10.0 mi East 12.7 mph 16.1 mph N/A   Overcast
2:15 PM 33.8 °F 25.8 °F 26.6 °F 75% 30.15 in 9.0 mi East 10.4 mph 17.3 mph N/A   Overcast
2:35 PM 33.8 °F 26.4 °F 28.4 °F 81% 30.15 in 9.0 mi ESE 9.2 mph - N/A   Overcast
2:55 PM 33.8 °F 27.0 °F 28.4 °F 81% 30.14 in 5.0 mi East 8.1 mph - N/A   Overcast
3:15 PM 33.8 °F 27.0 °F 28.4 °F 81% 30.14 in 5.0 mi East 8.1 mph - N/A   Overcast
3:35 PM 33.8 °F 29.6 °F 28.4 °F 81% 30.13 in 4.0 mi ENE 4.6 mph - N/A   Overcast
3:55 PM 33.8 °F 26.4 °F 28.4 °F 81% 30.13 in 5.0 mi East 9.2 mph - N/A   Overcast
4:15 PM 33.8 °F 27.0 °F 28.4 °F 81% 30.12 in 5.0 mi East 8.1 mph - N/A   Overcast
4:35 PM 33.8 °F 27.7 °F 30.2 °F 87% 30.12 in 5.0 mi East 6.9 mph - N/A   Overcast
4:55 PM 33.8 °F 27.0 °F 30.2 °F 87% 30.11 in 3.0 mi East 8.1 mph - N/A   Overcast
5:15 PM 33.8 °F 27.0 °F 30.2 °F 87% 30.10 in 4.0 mi East 8.1 mph - N/A   Overcast
5:35 PM 33.8 °F 27.7 °F 30.2 °F 87% 30.10 in 4.0 mi East 6.9 mph - N/A   Overcast
5:55 PM 33.8 °F 27.0 °F 30.2 °F 87% 30.10 in 5.0 mi East 8.1 mph - 0.01 in   Overcast
6:15 PM 33.8 °F 27.7 °F 30.2 °F 87% 30.10 in 5.0 mi East 6.9 mph - N/A   Overcast
6:35 PM 33.8 °F 27.0 °F 30.2 °F 87% 30.10 in 3.0 mi ENE 8.1 mph - 0.03 in   Overcast
6:55 PM 33.8 °F 26.4 °F 30.2 °F 87% 30.09 in 4.0 mi East 9.2 mph - 0.06 in   Overcast
7:15 PM 33.8 °F 25.3 °F 30.2 °F 87% 30.08 in 3.0 mi East 11.5 mph - 0.02 in   Overcast
7:35 PM 33.8 °F 26.4 °F 32.0 °F 93% 30.08 in 3.0 mi East 9.2 mph - 0.04 in   Overcast
7:55 PM 33.8 °F 27.0 °F 30.2 °F 87% 30.07 in 3.0 mi East 8.1 mph - 0.05 in   Overcast
8:15 PM 35.6 °F 29.2 °F 32.0 °F 87% 30.07 in 4.0 mi East 8.1 mph - N/A   Overcast
8:35 PM 35.6 °F 28.6 °F 32.0 °F 87% 30.07 in 4.0 mi East 9.2 mph - N/A   Overcast
8:55 PM 35.6 °F 29.2 °F 32.0 °F 87% 30.06 in 3.0 mi East 8.1 mph - N/A   Overcast
9:15 PM 35.6 °F 29.2 °F 32.0 °F 87% 30.05 in 3.0 mi East 8.1 mph - N/A   Overcast
9:35 PM 35.6 °F 29.2 °F 32.0 °F 87% 30.05 in 3.0 mi East 8.1 mph - N/A   Overcast
9:55 PM 35.6 °F 29.9 °F 32.0 °F 87% 30.04 in 3.0 mi East 6.9 mph - 0.01 in   Overcast
10:35 PM 35.6 °F 29.2 °F 33.8 °F 93% 30.04 in 6.0 mi ENE 8.1 mph - N/A   Overcast
10:55 PM 35.6 °F 28.6 °F 33.8 °F 93% 30.04 in 7.0 mi ENE 9.2 mph - N/A   Overcast
11:15 PM 35.6 °F 28.6 °F 33.8 °F 93% 30.04 in 5.0 mi ENE 9.2 mph - 0.01 in   Overcast
11:35 PM 35.6 °F 28.6 °F 33.8 °F 93% 30.03 in 6.0 mi ENE 9.2 mph - 0.01 in   Overcast
11:55 PM 35.6 °F 28.6 °F 33.8 °F 93% 30.02 in 3.0 mi ENE 9.2 mph - 0.06 in   Overcast